contact:dominique.lefevre@mio.osupytheas.fr, maurice.libes@osupytheas.fr, didier.mallarino@osupytheas.fr
Project:EMSO http://www.emso-fr.org/EMSO-France
Depth: 2436.0 m
Title:EMSO Ligure Ouest : Data MII capteur AQUADOPP
Date,Latitude,Longitude,X_East,Y_North,Z_Up,Amplitude_X,Amplitude_Y,Amplitude_Z,Batterie,SoundSpeed,Heading,Pitch,Roll,Pressure,TIS,Speed,Direction
, degrees North, degrees East, m.s-1, m.s-1,m.s-1, 1, 1, 1, Volt, m.s-1, degree, degree, degree, dbar, degree_C, m.s-1, degree
2020-12-01T00:04:02,42.805,6.029,0.081,-0.017,0.037,101.0,103.0,99.0,13.4,1505.2,325.0,-0.7,1.8,2470.479,13.3,0.082,101.9
2020-12-01T00:07:03,42.805,6.029,0.037,-0.024,0.016,101.0,103.0,101.0,13.3,1505.3,327.9,-0.8,1.9,2470.45,13.31,0.044,123.0
2020-12-01T00:10:03,42.805,6.029,0.074,-0.039,-0.007,101.0,103.0,100.0,13.3,1505.3,324.0,-0.7,1.8,2470.492,13.31,0.083,117.8
2020-12-01T00:13:03,42.805,6.029,0.073,-0.041,0.002,101.0,104.0,99.0,13.4,1505.3,327.1,-0.7,1.9,2470.475,13.31,0.083,119.3
2020-12-01T00:16:03,42.805,6.029,0.063,-0.045,-0.015,100.0,104.0,100.0,13.4,1505.3,324.2,-0.7,1.8,2470.45,13.31,0.077,125.5
2020-12-01T00:19:03,42.805,6.029,0.063,-0.018,0.008,101.0,103.0,99.0,13.3,1505.3,326.9,-0.7,1.8,2470.468,13.32,0.065,105.9
2020-12-01T00:22:03,42.805,6.029,0.053,-0.021,0.029,100.0,108.0,100.0,13.3,1505.3,327.1,-0.7,1.9,2470.476,13.32,0.057,111.6
2020-12-01T00:25:03,42.805,6.029,0.066,-0.013,0.014,99.0,105.0,101.0,13.3,1505.3,327.5,-0.7,1.8,2470.46,13.32,0.067,101.1
2020-12-01T00:28:03,42.805,6.029,0.049,-0.02,0.01,102.0,109.0,100.0,13.3,1505.3,325.9,-0.7,1.8,2470.43,13.32,0.052,112.2
2020-12-01T00:31:03,42.805,6.029,0.061,-0.012,0.031,102.0,103.0,99.0,13.4,1505.3,327.2,-0.7,1.9,2470.484,13.32,0.062,101.1
2020-12-01T00:34:03,42.805,6.029,0.057,-0.012,0.008,101.0,107.0,99.0,13.4,1505.3,325.5,-0.7,1.8,2470.457,13.32,0.058,101.9
2020-12-01T00:37:03,42.805,6.029,0.048,-0.013,0.028,101.0,104.0,100.0,13.4,1505.3,326.1,-0.7,1.8,2470.431,13.32,0.049,105.2
2020-12-01T00:40:03,42.805,6.029,0.086,-0.019,0.045,102.0,104.0,98.0,13.4,1505.3,323.5,-0.7,1.8,2470.431,13.32,0.088,102.5
2020-12-01T00:43:03,42.805,6.029,0.052,-0.021,0.015,100.0,105.0,99.0,13.4,1505.3,326.8,-0.7,1.8,2470.442,13.32,0.056,112.0
2020-12-01T00:46:03,42.805,6.029,0.083,-0.027,0.04,100.0,104.0,100.0,13.4,1505.3,325.0,-0.7,1.8,2470.443,13.32,0.087,108.0
2020-12-01T00:49:03,42.805,6.029,0.074,-0.034,0.036,101.0,105.0,100.0,13.4,1505.3,328.0,-0.7,1.8,2470.409,13.32,0.081,114.7
2020-12-01T00:52:03,42.805,6.029,0.065,-0.04,-0.026,102.0,106.0,98.0,13.4,1505.3,325.1,-0.7,1.8,2470.463,13.32,0.076,121.6
2020-12-01T00:55:03,42.805,6.029,0.057,-0.023,0.004,101.0,103.0,101.0,13.4,1505.3,325.2,-0.7,1.8,2470.402,13.32,0.061,112.0
2020-12-01T00:58:03,42.805,6.029,0.043,-0.012,0.015,101.0,103.0,101.0,13.4,1505.3,325.0,-0.7,1.8,2470.397,13.32,0.044,105.6
2020-12-01T01:04:03,42.805,6.029,0.047,-0.042,-0.021,103.0,106.0,101.0,13.4,1505.2,323.5,-0.7,1.8,2470.486,13.3,0.063,131.8
2020-12-01T01:07:03,42.805,6.029,0.061,-0.024,-0.015,101.0,104.0,100.0,13.4,1505.3,326.7,-0.7,1.8,2470.429,13.31,0.065,111.5
2020-12-01T01:10:03,42.805,6.029,0.06,-0.009,0.037,100.0,104.0,100.0,13.3,1505.3,323.9,-0.7,1.8,2470.451,13.31,0.06,98.5
2020-12-01T01:13:03,42.805,6.029,0.044,-0.03,0.004,100.0,108.0,97.0,13.4,1505.3,327.5,-0.7,1.8,2470.484,13.31,0.053,124.3
2020-12-01T01:16:03,42.805,6.029,0.036,-0.03,-0.021,101.0,103.0,100.0,13.3,1505.3,327.3,-0.7,1.8,2470.427,13.32,0.046,129.8
2020-12-01T01:19:03,42.805,6.029,0.036,-0.022,0.014,101.0,106.0,100.0,13.4,1505.3,326.3,-0.7,1.8,2470.471,13.32,0.042,121.4
2020-12-01T01:22:02,42.805,6.029,0.083,-0.029,0.025,101.0,105.0,100.0,13.4,1505.3,325.0,-0.7,1.8,2470.428,13.32,0.087,109.3
2020-12-01T01:25:03,42.805,6.029,0.106,-0.032,0.022,100.0,104.0,98.0,13.4,1505.3,327.6,-0.7,1.8,2470.413,13.32,0.11,106.8
2020-12-01T01:28:03,42.805,6.029,0.066,-0.038,0.025,100.0,107.0,101.0,13.4,1505.3,324.2,-0.7,1.8,2470.456,13.32,0.076,119.9
2020-12-01T01:31:03,42.805,6.029,0.078,-0.026,0.01,100.0,106.0,100.0,13.4,1505.3,327.1,-0.7,1.8,2470.462,13.32,0.082,108.4
2020-12-01T01:34:03,42.805,6.029,0.052,-0.014,0.013,101.0,105.0,100.0,13.4,1505.3,327.7,-0.7,1.8,2470.401,13.32,0.053,105.1
2020-12-01T01:37:03,42.805,6.029,0.021,-0.036,-0.001,100.0,105.0,100.0,13.4,1505.3,324.0,-0.7,1.8,2470.448,13.32,0.041,149.7
2020-12-01T01:40:03,42.805,6.029,0.065,-0.038,0.01,99.0,105.0,100.0,13.3,1505.3,326.2,-0.7,1.8,2470.431,13.32,0.075,120.3
2020-12-01T01:43:03,42.805,6.029,0.066,-0.008,0.031,101.0,106.0,100.0,13.4,1505.3,326.5,-0.7,1.9,2470.453,13.32,0.066,96.9
2020-12-01T01:46:03,42.805,6.029,0.052,-0.036,0.011,101.0,104.0,98.0,13.4,1505.3,324.0,-0.7,1.8,2470.431,13.32,0.063,124.7
2020-12-01T01:49:03,42.805,6.029,0.033,-0.021,-0.049,100.0,108.0,100.0,13.4,1505.3,324.8,-0.7,1.9,2470.451,13.32,0.039,122.5
2020-12-01T01:52:03,42.805,6.029,0.053,-0.015,0.042,101.0,105.0,100.0,13.4,1505.3,324.5,-0.7,1.8,2470.412,13.32,0.055,105.8
2020-12-01T01:55:03,42.805,6.029,0.06,-0.012,0.021,102.0,104.0,99.0,13.4,1505.3,324.7,-0.7,1.8,2470.425,13.32,0.061,101.3
2020-12-01T01:58:03,42.805,6.029,0.042,-0.005,0.014,101.0,108.0,100.0,13.3,1505.3,326.8,-0.7,1.8,2470.411,13.32,0.042,96.8
2020-12-01T02:04:03,42.805,6.029,0.037,-0.029,0.024,101.0,103.0,100.0,13.3,1505.2,325.4,-0.7,1.8,2470.471,13.3,0.047,128.1
2020-12-01T02:07:03,42.805,6.029,0.035,-0.01,0.01,101.0,103.0,100.0,13.4,1505.3,324.5,-0.7,1.8,2470.418,13.31,0.036,105.9
2020-12-01T02:10:03,42.805,6.029,0.062,-0.032,0.006,100.0,103.0,99.0,13.3,1505.3,323.4,-0.7,1.8,2470.428,13.31,0.069,117.3
2020-12-01T02:13:03,42.805,6.029,0.053,-0.04,-0.031,101.0,105.0,100.0,13.4,1505.3,324.7,-0.7,1.8,2470.451,13.31,0.066,127.0
2020-12-01T02:16:03,42.805,6.029,0.079,-0.029,0.032,100.0,103.0,99.0,13.4,1505.3,328.0,-0.7,1.8,2470.456,13.32,0.084,110.2
2020-12-01T02:19:03,42.805,6.029,0.091,-0.014,0.032,99.0,104.0,100.0,13.4,1505.3,324.3,-0.8,1.8,2470.472,13.32,0.092,98.7
2020-12-01T02:22:03,42.805,6.029,0.04,-0.02,0.023,101.0,106.0,100.0,13.4,1505.3,324.0,-0.7,1.8,2470.434,13.32,0.044,116.6
2020-12-01T02:25:03,42.805,6.029,0.053,0.008,0.025,100.0,107.0,100.0,13.4,1505.3,328.4,-0.7,1.8,2470.443,13.32,0.053,81.4
2020-12-01T02:28:03,42.805,6.029,0.073,-0.037,-0.017,101.0,105.0,100.0,13.4,1505.3,322.8,-0.7,1.8,2470.435,13.32,0.081,116.9
2020-12-01T02:31:03,42.805,6.029,0.065,-0.021,0.008,102.0,105.0,99.0,13.4,1505.3,327.8,-0.7,1.8,2470.406,13.32,0.068,107.9
2020-12-01T02:34:03,42.805,6.029,0.061,-0.026,0.014,102.0,106.0,99.0,13.4,1505.3,325.1,-0.7,1.8,2470.41,13.32,0.066,113.1
2020-12-01T02:37:03,42.805,6.029,0.045,-0.022,0.0,100.0,105.0,100.0,13.4,1505.3,324.6,-0.7,1.8,2470.426,13.32,0.05,116.1
2020-12-01T02:40:03,42.805,6.029,0.054,-0.034,0.014,101.0,106.0,99.0,13.4,1505.3,324.2,-0.7,1.8,2470.448,13.32,0.063,122.2
2020-12-01T02:43:03,42.805,6.029,0.077,-0.032,0.0,101.0,106.0,100.0,13.3,1505.3,323.6,-0.7,1.8,2470.46,13.32,0.083,112.6
2020-12-01T02:46:03,42.805,6.029,0.036,-0.021,-0.022,100.0,106.0,100.0,13.4,1505.3,325.2,-0.7,1.8,2470.431,13.32,0.041,120.3
2020-12-01T02:49:03,42.805,6.029,0.044,-0.02,-0.017,101.0,108.0,99.0,13.3,1505.3,326.2,-0.7,1.8,2470.432,13.32,0.048,114.4
2020-12-01T02:52:03,42.805,6.029,0.053,-0.015,0.011,102.0,107.0,99.0,13.3,1505.3,324.1,-0.7,1.8,2470.444,13.32,0.055,105.8
2020-12-01T02:55:03,42.805,6.029,0.046,-0.025,0.01,101.0,107.0,100.0,13.3,1505.3,328.1,-0.7,1.9,2470.418,13.32,0.052,118.5
2020-12-01T02:58:03,42.805,6.029,0.038,-0.054,-0.021,99.0,105.0,100.0,13.4,1505.3,327.6,-0.7,1.8,2470.445,13.32,0.066,144.9
2020-12-01T03:04:03,42.805,6.029,0.048,-0.038,-0.015,99.0,105.0,101.0,13.3,1505.2,328.0,-0.8,1.8,2470.461,13.3,0.061,128.4
2020-12-01T03:07:03,42.805,6.029,0.045,-0.025,-0.002,102.0,103.0,98.0,13.4,1505.3,327.0,-0.6,1.8,2470.431,13.31,0.051,119.1
2020-12-01T03:10:03,42.805,6.029,0.076,-0.047,0.008,101.0,103.0,99.0,13.4,1505.3,324.5,-0.7,1.8,2470.477,13.31,0.089,121.7
2020-12-01T03:13:03,42.805,6.029,0.058,-0.025,0.005,101.0,104.0,99.0,13.3,1505.3,326.0,-0.7,1.8,2470.467,13.31,0.063,113.3
2020-12-01T03:16:03,42.805,6.029,0.036,-0.052,-0.024,102.0,104.0,99.0,13.4,1505.3,326.9,-0.7,1.8,2470.466,13.32,0.063,145.3
2020-12-01T03:19:03,42.805,6.029,0.047,-0.023,-0.008,102.0,104.0,100.0,13.4,1505.3,328.2,-0.7,1.8,2470.433,13.32,0.052,116.1
2020-12-01T03:22:03,42.805,6.029,0.052,-0.006,0.019,101.0,103.0,99.0,13.4,1505.3,324.1,-0.7,1.8,2470.434,13.32,0.052,96.6
2020-12-01T03:25:03,42.805,6.029,0.042,-0.027,0.013,101.0,104.0,100.0,13.4,1505.3,327.0,-0.7,1.8,2470.426,13.32,0.049,122.7
2020-12-01T03:28:03,42.805,6.029,0.044,-0.029,-0.002,101.0,105.0,99.0,13.3,1505.3,325.6,-0.7,1.8,2470.454,13.32,0.052,123.4
2020-12-01T03:31:03,42.805,6.029,0.06,-0.03,-0.02,101.0,106.0,99.0,13.4,1505.3,324.6,-0.7,1.8,2470.45,13.32,0.067,116.6
2020-12-01T03:34:03,42.805,6.029,0.075,-0.002,0.04,102.0,104.0,99.0,13.4,1505.3,324.1,-0.7,1.8,2470.461,13.32,0.075,91.5
2020-12-01T03:37:03,42.805,6.029,0.056,-0.033,0.01,101.0,105.0,100.0,13.4,1505.3,325.5,-0.7,1.8,2470.457,13.32,0.064,120.5
2020-12-01T03:40:03,42.805,6.029,0.05,-0.026,-0.008,101.0,104.0,100.0,13.4,1505.3,324.8,-0.7,1.8,2470.469,13.32,0.056,117.5
2020-12-01T03:43:03,42.805,6.029,0.042,-0.014,-0.007,102.0,105.0,99.0,13.4,1505.3,327.7,-0.7,1.8,2470.425,13.32,0.044,108.4
2020-12-01T03:46:03,42.805,6.029,0.059,-0.038,0.0,101.0,103.0,100.0,13.4,1505.3,324.9,-0.7,1.8,2470.426,13.32,0.07,122.8
2020-12-01T03:49:03,42.805,6.029,0.061,-0.036,0.013,100.0,107.0,101.0,13.3,1505.3,324.5,-0.7,1.9,2470.469,13.32,0.07,120.5
2020-12-01T03:52:03,42.805,6.029,0.079,-0.023,0.006,99.0,105.0,99.0,13.3,1505.3,324.4,-0.7,1.8,2470.455,13.32,0.082,106.2
2020-12-01T03:55:03,42.805,6.029,0.032,-0.044,0.013,100.0,103.0,100.0,13.4,1505.3,327.5,-0.7,1.8,2470.458,13.32,0.054,144.0
2020-12-01T03:58:03,42.805,6.029,0.044,-0.025,-0.006,102.0,105.0,99.0,13.4,1505.3,327.1,-0.7,1.9,2470.451,13.32,0.05,119.6
2020-12-01T04:04:03,42.805,6.029,0.053,-0.029,-0.013,101.0,105.0,100.0,13.4,1505.2,326.0,-0.7,1.8,2470.492,13.3,0.06,118.7
2020-12-01T04:07:03,42.805,6.029,0.04,-0.03,-0.014,102.0,105.0,99.0,13.4,1505.3,324.8,-0.7,1.8,2470.468,13.31,0.05,126.9
2020-12-01T04:10:03,42.805,6.029,0.047,-0.036,0.0,102.0,103.0,100.0,13.3,1505.3,326.3,-0.7,1.8,2470.509,13.31,0.059,127.5
2020-12-01T04:13:03,42.805,6.029,0.054,-0.047,-0.006,102.0,105.0,99.0,13.4,1505.3,328.0,-0.7,1.8,2470.455,13.31,0.071,131.0
2020-12-01T04:16:03,42.805,6.029,0.042,-0.012,0.022,100.0,105.0,100.0,13.4,1505.3,323.4,-0.7,1.8,2470.489,13.32,0.043,105.9
2020-12-01T04:19:03,42.805,6.029,0.044,-0.011,0.016,101.0,107.0,100.0,13.4,1505.3,323.2,-0.7,1.8,2470.542,13.32,0.045,104.0
2020-12-01T04:22:03,42.805,6.029,0.035,-0.026,-0.017,100.0,104.0,100.0,13.4,1505.3,326.4,-0.7,1.9,2470.472,13.32,0.043,126.6
2020-12-01T04:25:03,42.805,6.029,0.063,-0.016,0.002,102.0,105.0,99.0,13.4,1505.3,325.1,-0.7,1.8,2470.505,13.32,0.064,104.2
2020-12-01T04:28:03,42.805,6.029,0.029,-0.017,0.004,101.0,104.0,99.0,13.4,1505.3,324.6,-0.7,1.8,2470.487,13.32,0.033,120.4
2020-12-01T04:31:03,42.805,6.029,0.047,-0.044,-0.018,101.0,103.0,99.0,13.4,1505.3,324.7,-0.7,1.8,2470.501,13.32,0.064,133.1
2020-12-01T04:34:03,42.805,6.029,0.024,-0.024,0.0,101.0,105.0,100.0,13.4,1505.3,326.5,-0.7,1.8,2470.516,13.32,0.033,135.0
2020-12-01T04:37:03,42.805,6.029,0.072,-0.029,0.021,102.0,106.0,99.0,13.3,1505.3,323.6,-0.7,1.8,2470.478,13.32,0.077,111.9
2020-12-01T04:40:03,42.805,6.029,0.048,-0.018,0.014,101.0,105.0,100.0,13.3,1505.3,326.2,-0.8,1.8,2470.497,13.32,0.051,110.6
2020-12-01T04:43:03,42.805,6.029,0.058,-0.027,0.019,102.0,106.0,100.0,13.4,1505.3,326.9,-0.7,1.8,2470.513,13.32,0.063,115.0
2020-12-01T04:46:03,42.805,6.029,0.047,-0.018,0.02,102.0,107.0,99.0,13.4,1505.3,327.4,-0.7,1.8,2470.509,13.32,0.05,111.0
2020-12-01T04:49:03,42.805,6.029,0.071,-0.034,0.0,102.0,104.0,99.0,13.3,1505.3,328.0,-0.7,1.8,2470.492,13.32,0.078,115.6
2020-12-01T04:52:03,42.805,6.029,0.039,-0.048,-0.001,101.0,103.0,100.0,13.4,1505.3,326.3,-0.7,1.9,2470.528,13.32,0.061,140.9
2020-12-01T04:55:03,42.805,6.029,0.044,-0.028,-0.011,101.0,106.0,99.0,13.3,1505.3,323.0,-0.7,1.8,2470.503,13.32,0.052,122.5
2020-12-01T04:58:03,42.805,6.029,0.048,-0.021,0.024,99.0,105.0,100.0,13.3,1505.3,324.8,-0.7,1.8,2470.566,13.32,0.052,113.6
2020-12-01T05:01:03,42.805,6.029,0.046,-0.03,0.004,101.0,104.0,100.0,13.3,1505.3,327.9,-0.7,1.8,2470.547,13.32,0.054,123.1
2020-12-01T05:04:03,42.805,6.029,0.075,-0.048,0.011,101.0,105.0,99.0,13.4,1505.3,327.2,-0.7,1.8,2470.552,13.32,0.089,122.6
2020-12-01T05:07:03,42.805,6.029,0.051,-0.013,0.016,103.0,104.0,99.0,13.3,1505.3,324.3,-0.7,1.8,2470.517,13.32,0.052,104.3
2020-12-01T05:10:03,42.805,6.029,0.065,-0.029,-0.012,101.0,107.0,100.0,13.4,1505.3,324.5,-0.7,1.8,2470.554,13.32,0.071,114.0
2020-12-01T05:13:03,42.805,6.029,0.07,-0.018,0.023,102.0,106.0,100.0,13.4,1505.3,326.1,-0.7,1.8,2470.54,13.32,0.072,104.4
2020-12-01T05:16:03,42.805,6.029,0.062,-0.031,0.01,101.0,104.0,100.0,13.4,1505.3,328.0,-0.7,1.9,2470.572,13.32,0.069,116.6
2020-12-01T05:19:03,42.805,6.029,0.093,-0.047,0.021,101.0,103.0,100.0,13.3,1505.3,328.3,-0.7,1.8,2470.543,13.32,0.104,116.8
2020-12-01T05:22:03,42.805,6.029,0.062,-0.034,0.02,101.0,103.0,100.0,13.3,1505.3,327.8,-0.7,1.8,2470.545,13.32,0.07,118.7
2020-12-01T05:25:03,42.805,6.029,0.018,-0.01,0.01,101.0,107.0,99.0,13.3,1505.3,324.0,-0.7,1.8,2470.549,13.32,0.02,119.1
2020-12-01T05:28:03,42.805,6.029,0.05,-0.001,0.018,101.0,108.0,100.0,13.4,1505.3,323.3,-0.7,1.8,2470.56,13.32,0.05,91.1
2020-12-01T05:31:03,42.805,6.029,0.049,-0.037,-0.02,100.0,106.0,99.0,13.4,1505.3,323.2,-0.7,1.8,2470.616,13.32,0.061,127.1
2020-12-01T05:34:03,42.805,6.029,0.046,-0.019,-0.022,102.0,104.0,99.0,13.4,1505.3,324.2,-0.7,1.8,2470.566,13.32,0.049,112.4
2020-12-01T05:37:03,42.805,6.029,0.051,-0.025,-0.011,101.0,104.0,100.0,13.4,1505.3,325.5,-0.7,1.8,2470.596,13.32,0.056,116.1
2020-12-01T05:40:03,42.805,6.029,0.054,-0.012,0.004,101.0,105.0,100.0,13.4,1505.3,325.0,-0.7,1.8,2470.592,13.32,0.055,102.5
2020-12-01T05:43:03,42.805,6.029,0.058,-0.023,-0.013,101.0,106.0,99.0,13.4,1505.3,323.8,-0.7,1.9,2470.578,13.32,0.062,111.6
2020-12-01T05:46:03,42.805,6.029,0.05,-0.019,0.008,101.0,105.0,100.0,13.4,1505.3,325.1,-0.7,1.8,2470.577,13.32,0.053,110.8
2020-12-01T05:49:03,42.805,6.029,0.035,-0.035,-0.003,101.0,106.0,98.0,13.3,1505.3,324.7,-0.7,1.8,2470.614,13.32,0.049,135.0
2020-12-01T05:52:03,42.805,6.029,0.049,-0.024,0.014,102.0,106.0,100.0,13.4,1505.3,327.6,-0.7,1.8,2470.555,13.32,0.054,116.1
2020-12-01T05:55:03,42.805,6.029,0.07,-0.03,-0.009,101.0,104.0,99.0,13.3,1505.3,327.5,-0.7,1.8,2470.6,13.32,0.076,113.2
2020-12-01T05:58:03,42.805,6.029,0.027,-0.023,0.005,100.0,108.0,100.0,13.3,1505.3,327.9,-0.7,1.8,2470.582,13.32,0.035,130.4
2020-12-01T06:04:03,42.805,6.029,0.039,0.001,0.027,102.0,107.0,100.0,13.4,1505.2,326.9,-0.7,1.8,2470.644,13.3,0.039,88.5
2020-12-01T06:07:03,42.805,6.029,0.064,-0.036,-0.008,101.0,106.0,100.0,13.3,1505.3,325.7,-0.7,1.9,2470.628,13.31,0.073,119.4
2020-12-01T06:10:03,42.805,6.029,0.049,-0.036,-0.014,100.0,106.0,100.0,13.3,1505.3,324.3,-0.7,1.8,2470.623,13.31,0.06,126.3
2020-12-01T06:13:03,42.805,6.029,0.068,-0.013,-0.019,101.0,107.0,100.0,13.3,1505.3,324.7,-0.7,1.8,2470.63,13.31,0.069,100.8
2020-12-01T06:16:03,42.805,6.029,0.043,-0.024,0.018,102.0,108.0,100.0,13.3,1505.3,326.1,-0.7,1.8,2470.61,13.32,0.049,119.2
2020-12-01T06:19:03,42.805,6.029,0.072,-0.024,0.023,101.0,107.0,100.0,13.4,1505.3,323.2,-0.7,1.8,2470.576,13.32,0.075,108.4
2020-12-01T06:22:03,42.805,6.029,0.036,-0.004,0.021,101.0,106.0,100.0,13.4,1505.3,324.2,-0.7,1.8,2470.62,13.32,0.036,96.3
2020-12-01T06:25:03,42.805,6.029,0.049,-0.012,0.019,101.0,106.0,99.0,13.3,1505.3,327.5,-0.7,1.8,2470.649,13.32,0.05,103.8
2020-12-01T06:28:03,42.805,6.029,0.052,-0.024,-0.036,102.0,106.0,100.0,13.3,1505.3,322.7,-0.7,1.8,2470.623,13.32,0.057,114.8
2020-12-01T06:31:03,42.805,6.029,0.032,-0.025,-0.004,101.0,110.0,100.0,13.4,1505.3,327.3,-0.7,1.9,2470.588,13.32,0.04,128.0
2020-12-01T06:34:03,42.805,6.029,0.044,-0.026,-0.011,102.0,107.0,100.0,13.4,1505.3,324.4,-0.7,1.8,2470.632,13.32,0.051,120.6
2020-12-01T06:37:03,42.805,6.029,0.045,-0.042,-0.013,101.0,109.0,99.0,13.3,1505.3,325.9,-0.7,1.8,2470.635,13.32,0.061,133.0
2020-12-01T06:40:03,42.805,6.029,0.058,-0.017,-0.008,103.0,106.0,101.0,13.4,1505.3,323.1,-0.7,1.8,2470.612,13.32,0.06,106.3
2020-12-01T06:43:03,42.805,6.029,0.05,-0.025,-0.002,101.0,106.0,99.0,13.3,1505.3,326.8,-0.7,1.8,2470.625,13.32,0.055,116.6
2020-12-01T06:46:03,42.805,6.029,0.069,-0.022,-0.027,101.0,106.0,100.0,13.4,1505.3,324.6,-0.7,1.8,2470.615,13.32,0.072,107.7
2020-12-01T06:49:03,42.805,6.029,0.07,-0.013,0.029,101.0,104.0,100.0,13.4,1505.3,326.3,-0.7,1.8,2470.626,13.32,0.071,100.5
2020-12-01T06:52:03,42.805,6.029,0.044,-0.025,-0.007,101.0,106.0,99.0,13.3,1505.3,326.4,-0.7,1.9,2470.63,13.32,0.05,119.6
2020-12-01T06:55:03,42.805,6.029,0.071,-0.027,0.052,101.0,107.0,99.0,13.4,1505.3,327.0,-0.7,1.8,2470.617,13.32,0.075,110.8
2020-12-01T06:58:03,42.805,6.029,0.065,-0.027,0.011,102.0,105.0,98.0,13.4,1505.3,326.9,-0.7,1.8,2470.633,13.32,0.07,112.6
2020-12-01T07:04:03,42.805,6.029,0.062,-0.023,0.019,100.0,107.0,100.0,13.3,1505.2,326.7,-0.7,1.8,2470.648,13.3,0.066,110.3
2020-12-01T07:07:03,42.805,6.029,0.038,-0.011,-0.014,103.0,107.0,99.0,13.4,1505.3,326.0,-0.7,1.8,2470.645,13.31,0.039,106.1
2020-12-01T07:10:03,42.805,6.029,0.028,-0.002,-0.001,102.0,112.0,100.0,13.4,1505.3,323.7,-0.6,1.8,2470.638,13.31,0.028,94.1
2020-12-01T07:13:03,42.805,6.029,0.056,-0.018,0.008,101.0,109.0,100.0,13.4,1505.3,324.6,-0.7,1.8,2470.701,13.31,0.058,107.8
2020-12-01T07:16:03,42.805,6.029,0.047,0.001,0.038,101.0,109.0,100.0,13.3,1505.3,326.6,-0.7,1.9,2470.648,13.32,0.047,88.8
2020-12-01T07:19:03,42.805,6.029,0.078,-0.019,0.015,102.0,108.0,100.0,13.4,1505.3,326.3,-0.7,1.8,2470.626,13.32,0.08,103.7
2020-12-01T07:22:03,42.805,6.029,0.08,-0.026,-0.006,102.0,106.0,100.0,13.3,1505.3,326.0,-0.7,1.8,2470.673,13.32,0.084,108.0
2020-12-01T07:25:03,42.805,6.029,0.073,-0.017,0.045,102.0,108.0,101.0,13.3,1505.3,325.8,-0.7,1.8,2470.623,13.32,0.074,103.1
2020-12-01T07:28:03,42.805,6.029,0.057,-0.026,0.006,101.0,107.0,100.0,13.4,1505.3,326.3,-0.7,1.8,2470.61,13.32,0.062,114.5
2020-12-01T07:31:03,42.805,6.029,0.044,0.002,0.003,102.0,107.0,100.0,13.3,1505.3,325.3,-0.7,1.8,2470.64,13.32,0.044,87.4
2020-12-01T07:34:03,42.805,6.029,0.057,-0.052,-0.01,102.0,108.0,100.0,13.3,1505.3,328.0,-0.7,1.8,2470.696,13.32,0.077,132.4
2020-12-01T07:37:03,42.805,6.029,0.055,-0.02,0.017,101.0,107.0,100.0,13.3,1505.3,325.2,-0.7,1.8,2470.628,13.32,0.058,110.0
2020-12-01T07:40:03,42.805,6.029,0.075,-0.035,-0.037,102.0,104.0,99.0,13.4,1505.3,326.0,-0.7,1.8,2470.657,13.32,0.082,115.0
2020-12-01T07:43:03,42.805,6.029,0.042,-0.016,0.001,102.0,109.0,100.0,13.4,1505.3,325.1,-0.7,1.8,2470.616,13.32,0.044,110.9
2020-12-01T07:46:03,42.805,6.029,0.048,-0.018,-0.001,102.0,107.0,101.0,13.3,1505.3,325.0,-0.7,1.8,2470.604,13.32,0.051,110.6
2020-12-01T07:49:03,42.805,6.029,0.049,-0.017,0.027,101.0,110.0,100.0,13.4,1505.3,324.4,-0.7,1.8,2470.648,13.32,0.051,109.1
2020-12-01T07:52:03,42.805,6.029,0.052,-0.024,0.011,102.0,111.0,99.0,13.4,1505.3,328.5,-0.7,1.9,2470.635,13.32,0.057,114.8
2020-12-01T07:55:03,42.805,6.029,0.049,-0.008,0.013,101.0,106.0,100.0,13.3,1505.3,325.4,-0.7,1.8,2470.689,13.32,0.049,99.3
2020-12-01T07:58:03,42.805,6.029,0.043,0.001,0.038,101.0,113.0,99.0,13.3,1505.3,327.8,-0.7,1.8,2470.631,13.32,0.043,88.7
2020-12-01T08:04:03,42.805,6.029,0.048,-0.027,-0.025,102.0,109.0,99.0,13.4,1505.2,327.4,-0.8,1.9,2470.674,13.3,0.055,119.4
2020-12-01T08:07:03,42.805,6.029,0.045,-0.013,-0.012,101.0,113.0,100.0,13.4,1505.3,326.5,-0.7,1.9,2470.653,13.31,0.046,106.1
2020-12-01T08:10:03,42.805,6.029,0.041,-0.023,-0.007,101.0,112.0,99.0,13.4,1505.3,327.5,-0.7,1.8,2470.687,13.31,0.047,119.3
2020-12-01T08:13:03,42.805,6.029,0.051,-0.014,0.012,102.0,109.0,99.0,13.4,1505.3,324.7,-0.7,1.8,2470.621,13.31,0.052,105.3
2020-12-01T08:16:03,42.805,6.029,0.032,-0.026,0.0,101.0,107.0,99.0,13.4,1505.3,323.0,-0.7,1.8,2470.658,13.32,0.041,129.1
2020-12-01T08:19:03,42.805,6.029,0.031,0.002,-0.007,101.0,114.0,99.0,13.4,1505.3,328.1,-0.7,1.8,2470.664,13.32,0.031,86.3
2020-12-01T08:22:03,42.805,6.029,0.045,-0.002,0.03,102.0,111.0,99.0,13.4,1505.3,326.6,-0.7,1.8,2470.67,13.32,0.045,92.5
2020-12-01T08:25:03,42.805,6.029,0.054,-0.026,0.012,102.0,106.0,100.0,13.4,1505.3,327.7,-0.7,1.8,2470.636,13.32,0.059,115.7
2020-12-01T08:28:03,42.805,6.029,0.051,0.0,0.009,101.0,108.0,100.0,13.4,1505.3,326.0,-0.7,1.9,2470.649,13.32,0.051,90.0
2020-12-01T08:31:03,42.805,6.029,0.061,-0.034,-0.015,101.0,111.0,100.0,13.3,1505.3,326.3,-0.7,1.8,2470.622,13.32,0.069,119.1
2020-12-01T08:34:03,42.805,6.029,0.051,-0.029,0.018,102.0,109.0,100.0,13.4,1505.3,327.0,-0.7,1.9,2470.663,13.32,0.058,119.6
2020-12-01T08:37:03,42.805,6.029,0.032,-0.018,-0.011,102.0,109.0,100.0,13.4,1505.3,326.4,-0.7,1.8,2470.632,13.32,0.036,119.4
2020-12-01T08:40:03,42.805,6.029,0.029,0.011,-0.005,101.0,113.0,100.0,13.3,1505.3,323.5,-0.7,1.8,2470.63,13.32,0.031,69.2
2020-12-01T08:43:03,42.805,6.029,0.026,-0.005,-0.018,101.0,112.0,100.0,13.4,1505.3,326.3,-0.7,1.8,2470.657,13.32,0.026,100.9
2020-12-01T08:46:03,42.805,6.029,0.047,-0.011,-0.006,102.0,110.0,100.0,13.4,1505.3,325.2,-0.7,1.8,2470.62,13.32,0.048,103.2
2020-12-01T08:49:03,42.805,6.029,0.018,-0.027,-0.029,100.0,112.0,100.0,13.3,1505.3,328.0,-0.7,1.8,2470.618,13.32,0.032,146.3
2020-12-01T08:52:03,42.805,6.029,0.051,-0.025,0.002,100.0,113.0,100.0,13.3,1505.3,324.5,-0.7,1.8,2470.635,13.32,0.056,116.1
2020-12-01T08:55:03,42.805,6.029,0.053,-0.038,0.015,102.0,110.0,98.0,13.3,1505.3,327.5,-0.7,1.8,2470.693,13.32,0.065,125.6
2020-12-01T08:58:03,42.805,6.029,0.038,-0.012,0.006,100.0,111.0,100.0,13.4,1505.3,325.5,-0.7,1.8,2470.633,13.32,0.039,107.5
2020-12-01T09:04:03,42.805,6.029,0.051,-0.023,0.008,101.0,111.0,100.0,13.4,1505.2,323.1,-0.7,1.8,2470.678,13.3,0.055,114.3
2020-12-01T09:07:03,42.805,6.029,0.047,-0.016,-0.013,101.0,112.0,99.0,13.4,1505.3,324.1,-0.7,1.8,2470.665,13.31,0.049,108.8
2020-12-01T09:10:03,42.805,6.029,0.032,-0.016,-0.021,101.0,109.0,100.0,13.4,1505.3,326.1,-0.7,1.8,2470.671,13.31,0.035,116.6
2020-12-01T09:13:03,42.805,6.029,0.052,-0.013,0.022,101.0,111.0,100.0,13.4,1505.3,325.4,-0.7,1.8,2470.599,13.31,0.053,104.0
2020-12-01T09:16:03,42.805,6.029,0.062,-0.017,0.007,102.0,110.0,100.0,13.4,1505.3,324.7,-0.7,1.8,2470.644,13.32,0.064,105.3
2020-12-01T09:19:03,42.805,6.029,0.038,0.008,0.004,101.0,112.0,98.0,13.4,1505.3,323.2,-0.7,1.9,2470.651,13.32,0.038,78.1
2020-12-01T09:22:03,42.805,6.029,0.063,-0.026,-0.014,102.0,109.0,99.0,13.4,1505.3,326.1,-0.7,1.8,2470.649,13.32,0.068,112.4
2020-12-01T09:25:03,42.805,6.029,0.043,-0.028,-0.009,100.0,112.0,100.0,13.4,1505.3,326.0,-0.7,1.8,2470.629,13.32,0.051,123.1
2020-12-01T09:28:03,42.805,6.029,0.053,-0.011,-0.002,101.0,110.0,100.0,13.3,1505.3,323.0,-0.7,1.8,2470.617,13.32,0.054,101.7
2020-12-01T09:31:03,42.805,6.029,0.076,-0.004,0.029,101.0,110.0,100.0,13.4,1505.3,323.8,-0.7,1.8,2470.591,13.32,0.076,93.0
2020-12-01T09:34:03,42.805,6.029,0.051,-0.019,-0.009,102.0,114.0,99.0,13.4,1505.3,327.0,-0.7,1.8,2470.591,13.32,0.054,110.4
2020-12-01T09:37:03,42.805,6.029,0.038,-0.009,0.0,101.0,112.0,99.0,13.4,1505.3,323.8,-0.7,1.8,2470.643,13.32,0.039,103.3
2020-12-01T09:40:03,42.805,6.029,0.041,-0.024,-0.004,100.0,111.0,100.0,13.4,1505.3,324.5,-0.7,1.8,2470.59,13.32,0.047,120.3
2020-12-01T09:43:03,42.805,6.029,0.032,-0.015,-0.002,100.0,111.0,101.0,13.3,1505.3,326.5,-0.7,1.8,2470.614,13.32,0.035,115.1
2020-12-01T09:46:03,42.805,6.029,0.071,0.003,0.049,101.0,113.0,100.0,13.3,1505.3,326.1,-0.7,1.8,2470.62,13.32,0.071,87.6
2020-12-01T09:49:03,42.805,6.029,0.033,-0.011,-0.028,102.0,113.0,99.0,13.4,1505.3,326.6,-0.7,1.8,2470.6,13.32,0.034,108.4
2020-12-01T09:52:03,42.805,6.029,0.052,-0.008,0.012,101.0,114.0,99.0,13.3,1505.3,323.5,-0.7,1.8,2470.594,13.32,0.052,98.7
2020-12-01T09:55:03,42.805,6.029,0.056,-0.006,-0.019,102.0,115.0,99.0,13.4,1505.3,325.1,-0.7,1.8,2470.587,13.32,0.056,96.1